Location: Aubervilles
(48.9167°N, 2.3833°E)
Time: 12:00:51
(UTC+00:00)

ATLAS 5 CENTAUR R/B - Pass Details

Date: 03 February 2023
Orbit: 460 x 1178 km, 63.3° (Epoch: 24 March)

Event Time Altitude Azimuth Distance (km) Brightness Sun altitude
Rises 18:31:58 0° 301° (WNW) 2,707 5.7 -16.8°
Reaches altitude 10° 18:35:07 10° 330° (NNW) 1,935 4.4 -17.3°
Maximum altitude 18:37:19 14° 0° (N) 1,804 3.9 -17.7°
Enters shadow 18:39:08 11° 24° (NNE) 2,019 3.9 -18.0°
